Location: Te Maire Creek
(41.1333°S, 175.9167°E)
Time: 02:02:32
(UTC+00:00)

Nadezhda 3 Rocket - Pass Details

Date: 19 May 2024
Orbit: 956 x 998 km, 82.9° (Epoch: 18 June)

Event Time Altitude Azimuth Distance (km) Brightness Sun altitude
Rises 17:40:53 0° 328° (NNW) 3,670 6.8 -18.9°
Reaches altitude 10° 17:43:38 10° 319° (NW) 2,725 6.1 -18.4°
Maximum altitude 17:49:16 35° 255° (WSW) 1,534 4.5 -17.3°
Drops below altitude 10° 17:54:55 10° 190° (S) 2,731 6.1 -16.3°
Sets 17:57:41 0° 180° (S) 3,680 6.9 -15.8°
